Overview Statistics Trail Chart Weather Telemetry Raw packets
 

This is the latest recevied weather packets stored in our database for station/object WK1F-2. If no packets are shown the sender has not sent any weather packets the latest 10 day(s).

<< 9 10 11 12 13 14 15 >>
Time Temp. Humidity Pressure Rain* Wind** Luminosity Snow
1788546470 26.67° C 96% 1014.8 hPa 3.81 mm - - -
1788546170 26.67° C 96% 1014.9 hPa 3.81 mm - - -
1788545870 26.67° C 96% 1015 hPa 3.81 mm - - -
1788545570 26.67° C 96% 1015.1 hPa 3.56 mm - - -
1788545270 26.11° C 96% 1015.2 hPa 3.3 mm - - -
1788544970 26.11° C 96% 1015.1 hPa 3.05 mm - - -
1788544670 26.11° C 96% 1015 hPa 2.79 mm - - -
1788544370 26.11° C 96% 1015 hPa 2.79 mm - - -
1788544070 25.56° C 95% 1015 hPa 2.79 mm - - -
1788543770 25.56° C 95% 1015 hPa 2.54 mm - - -
1788543470 25.56° C 95% 1015.1 hPa 2.03 mm - - -
1788542870 26.11° C 93% 1015.3 hPa 0.51 mm - - -
1788542570 26.11° C 93% 1015.4 hPa 0.25 mm - - -
1788542270 26.67° C 94% 1015.5 hPa 0 mm - - -
1788541970 26.67° C 95% 1015.6 hPa 0 mm - - -
1788541669 26.67° C 95% 1015.7 hPa 0 mm - - -
1788541369 26.67° C 95% 1015.8 hPa 0 mm - - -
1788541069 26.67° C 95% 1015.7 hPa 0 mm - - -
1788540769 26.67° C 95% 1015.6 hPa 0 mm - - -
1788540469 26.67° C 95% 1015.8 hPa 0 mm - - -
1788540169 26.67° C 95% 1015.7 hPa 0 mm - - -
1788539869 26.67° C 95% 1015.7 hPa 0.51 mm - - -
1788539569 26.67° C 96% 1015.7 hPa 0.51 mm - - -
1788539269 26.67° C 96% 1015.8 hPa 0.51 mm - - -
1788538969 26.67° C 96% 1015.9 hPa 0.51 mm - - -

* Rain latest hour (hover to see other rain measurements)
** Current wind speed in m/s (hover to see current wind gust speed)